FLOCK 2K-10 (42895 NORAD) Tracking and Keplerian Element Data

This shows tracking and keplerian element data for the satellite.

Feedback or suggestion? Click here.




ElementValue
Catalog42895
NameFLOCK 2K-10
Epoch Orbit3282
Epoch Day45.60597437
Epoch Year2018
RAAN308.4747
Inclination96.9928
Eccentricity0.0012684
Argument of Perigee173.8597
Mean Anonmoly186.2805
Mean Motion15.35602225
Decay Rate7.315E-05
L11 42895U 17042BY 18045.60597437 .00007315 00000-0 21299-3 0 9993
L22 42895 96.9928 308.4747 0012684 173.8597 186.2805 15.35602225 32823

Live tracking and technical data element details for FLOCK 2K-10 (NORAD 42895). FLOCK 2K-10 can be tracked NOW for your location showing map with azimuth and elevation plus other details from your city location.

Track the satellite on the map from your city or location and see movement details for azimuth, elevation, latitude, longitude, range, height, and movement on the map or in text.







IsCatalogInMostPopularTable: catalog: 42895, numindb: 143
Update: records affected: 1



GetName: 42895 FLOCK 2K-10

Hit Count: updated at: Mon, 12 Nov 2018 18:04:59 GMT